Location: Tirgo
(42.5459°N, 2.9494°W)
Time: 01:10:29
(UTC+00:00)

Daily predictions for brighter satellites

Satellite Brightness Start Highest point End
(mag) Time Altitude Azimuth Time Altitude Azimuth Time Altitude Azimuth
Lacrosse 5 3.6 00:00:54 10° WNW 00:03:12 20° W 00:03:12 20° W
Cosmos 1655 Rocket 3.9 00:07:30 62° SSW 00:08:33 78° W 00:14:49 10° N
STARLINK-1104 4.4 00:04:31 10° NW 00:08:12 51° N 00:08:12 51° N
COSMOS 2455 3.5 00:11:40 39° ESE 00:11:40 39° ESE 00:17:11 10° NE
S3M 3.9 00:05:36 10° N 00:11:43 75° W 00:12:36 64° SSW
Cosmos 1726 3.4 00:08:24 10° N 00:10:54 40° N 00:10:54 40° N
Cosmos 2263 4.0 00:12:25 74° SW 00:12:55 84° WNW 00:18:34 10° NNE
Meteor 2-8 Rocket 4.3 00:07:17 10° NNW 00:13:24 74° W 00:14:13 64° SSW
STARLINK-1144 4.4 00:09:29 10° NW 00:13:00 51° N 00:13:00 51° N
SL-27 R/B 4.4 00:11:21 10° NNW 00:13:10 26° NW 00:13:10 26° NW
Cosmos 2228 4.2 00:11:51 10° N 00:15:32 34° ENE 00:15:32 34° ENE
STARLINK-1103 4.4 00:14:27 10° NW 00:17:47 50° NNW 00:17:47 50° NNW
Cosmos 1953 3.1 00:16:27 10° N 00:19:26 48° NNW 00:19:26 48° NNW
Cosmos 1271 Rocket 4.2 00:21:40 31° NW 00:21:40 31° NW 00:24:28 10° N
Cosmos 1340 Rocket 3.5 00:17:58 10° N 00:21:08 52° N 00:21:08 52° N
STARLINK-1101 4.5 00:19:25 10° NW 00:22:33 47° NNW 00:22:33 47° NNW
Cosmos 1992 Rocket 3.9 00:25:15 74° W 00:25:28 76° WNW 00:30:42 10° NNE
COSMOS 2487 4.3 00:25:01 10° N 00:27:18 29° NNE 00:27:18 29° NNE
Cosmos 1707 4.3 00:29:05 30° NW 00:29:05 30° NW 00:31:55 10° N
Cosmos 1833 4.1 00:23:24 10° NNW 00:29:03 82° ENE 00:29:45 69° SE
USA 215 3.8 00:33:07 38° WSW 00:33:07 38° WSW 00:38:38 10° WNW
Cosmos 1626 4.1 00:34:31 22° ENE 00:34:31 22° ENE 00:36:41 10° NE
Cosmos 1656 Rocket 3.6 00:33:51 70° SW 00:34:28 80° WNW 00:40:06 10° NNE
In-Cosmos 22 4.0 00:35:37 67° WSW 00:35:57 69° W 00:41:15 10° N
FALCON 9 R/B 3.4 00:38:25 42° SSE 00:38:25 42° SSE 00:51:27 10° E
Cosmos 1606 Rocket 3.8 00:34:55 10° N 00:38:48 62° NE 00:38:48 62° NE
EO 1 Delta rocket 4.2 00:37:46 10° N 00:44:02 73° WNW 00:44:41 65° SW
Meteor 1-16 Rocket 4.1 00:39:31 10° NNW 00:45:03 64° W 00:45:20 63° WSW
Cosmos 2292 Rocket 4.3 00:45:34 43° WNW 00:45:34 43° WNW 00:48:52 10° N
CZ-4 R/B 3.7 00:40:34 10° NNE 00:45:23 81° WNW 00:45:23 81° WNW
SL-4 R/B 2.7 00:49:12 58° E 00:49:12 58° E 00:53:12 10° ENE
NOSS 3-2 (C) 4.0 00:43:57 10° NW 00:51:37 71° WSW 00:54:30 44° S
Cosmos 1674 3.7 00:53:21 43° NNW 00:53:21 43° NNW 00:56:05 10° N
PSLV R/B 3.7 00:49:28 10° N 00:53:53 72° NW 00:53:53 72° NW
ATLAS CENTAUR R/B 1.8 00:56:56 59° ENE 00:56:56 59° ENE 01:00:29 10° NE
NOSS 3-4 (A) 3.5 00:57:31 51° WSW 00:59:01 71° NW 01:05:20 10° NNE
NOSS 3-4 (C) 3.5 00:57:37 51° WSW 00:59:07 72° NW 01:05:26 10° NNE
SL-19 R/B 4.4 00:53:50 10° NNE 00:59:12 61° ESE 01:00:03 54° SE
BREEZE-M R/B 4.2 01:01:07 33° E 01:01:07 33° E 01:03:11 10° ENE
SL-16 R/B 3.8 00:56:01 16° ESE 01:00:13 35° ENE 01:05:44 10° N
Cosmos 1777 Rocket 4.5 00:55:17 10° NNW 01:00:26 55° ENE 01:01:54 41° ESE
ATLAS 3B R/B 2.9 01:00:38 10° NNW 01:07:27 70° NE 01:12:43 19° SE
Cosmos 1244 Rocket 4.4 01:07:54 57° S 01:09:19 89° WNW 01:15:33 10° N
BREEZE-M DEB (TANK) 3.8 01:12:38 20° NE 01:12:38 20° NE 01:13:27 10° NE
CENTAUR R/B 3.2 01:03:21 10° NW 01:11:28 64° WSW 01:14:47 40° S
Meteor 2-21 Rocket 4.4 01:11:40 53° SSE 01:13:10 77° E 01:19:20 10° N
Cosmos 1892 Rocket 3.6 01:14:51 70° WNW 01:14:51 70° WNW 01:19:05 10° N
Cosmos 1745 Rocket 4.5 01:12:45 37° SE 01:14:44 51° E 01:20:39 10° NNE
Cosmos 1867 3.4 01:10:30 10° NW 01:15:58 80° WSW 01:16:44 65° S
RESURS DK-1 2.7 01:19:17 59° E 01:19:17 59° E 01:22:59 10° NNE
Meteor 1-24 Rocket 3.4 01:22:03 65° SSW 01:22:51 82° W 01:28:15 10° N
Cosmos 2369 Rocket 4.2 01:20:44 13° W 01:23:55 20° NW 01:27:58 10° N
Cosmos 2227 Rocket 4.2 01:19:18 10° N 01:23:58 25° NE 01:28:37 10° ESE
Cosmos 1356 Rocket 4.3 01:21:05 10° N 01:25:03 42° ENE 01:25:49 38° ESE
Meteor 2-14 Rocket 4.4 01:24:00 53° SSW 01:25:26 73° W 01:31:35 10° N
Cosmos 1726 Rocket 4.2 01:23:11 10° NNW 01:26:45 42° WNW 01:26:45 42° WNW
ATLAS 2AS CENTAUR R/B 3.6 01:23:17 26° WSW 01:27:48 53° NW 01:35:34 10° NNE
CZ-2D R/B 2.8 01:23:50 10° NNE 01:28:52 45° E 01:30:15 37° SE
Helios 1B rocket 3.8 01:25:38 10° N 01:29:08 27° WNW 01:29:11 27° WNW
ADEOS II 4.1 01:27:39 10° NE 01:31:18 19° E 01:34:07 13° SE
CZ-4C R/B 3.9 01:30:46 49° ESE 01:31:29 56° ENE 01:35:43 10° N
DELTA 2 DEB (DPAF) 4.0 01:34:11 74° SSE 01:34:34 90° W 01:39:04 10° NNW
Meteor 2-5 Rocket 4.1 01:35:17 42° WSW 01:36:22 47° WNW 01:41:44 10° N
STARLINK-1209 4.4 01:35:04 10° NW 01:38:03 37° NNE 01:38:42 33° ENE
STARLINK-52 4.2 01:39:41 39° NE 01:39:41 39° NE 01:41:51 10° NE
Resurs 1-4 Rocket 2.4 01:33:27 10° NNE 01:38:41 58° E 01:40:11 42° SSE
NPP 4.0 01:40:48 10° NNE 01:46:08 57° E 01:47:56 38° SSE
STARLINK-1235 4.2 01:44:46 10° NW 01:47:43 39° NNE 01:50:40 10° ESE
STARLINK-1187 4.4 01:45:13 10° NW 01:48:07 36° NNE 01:51:01 10° E
GEOS 3 Rocket 3.8 01:48:43 47° SW 01:48:48 47° WSW 01:53:52 10° NW
Cosmos 1656 4.5 01:48:20 31° SSE 01:50:20 43° ESE 01:55:38 10° NE
Cosmos 2058 Rocket 3.8 01:47:04 10° NNW 01:51:01 39° W 01:51:01 39° W
CZ-4C R/B 3.6 01:50:43 19° SE 01:52:19 22° ESE 01:56:25 10° ENE
Cosmos 2084 3.4 01:52:18 68° S 01:52:48 80° SE 01:57:18 10° NE
SL-14 R/B 4.3 01:54:05 33° WNW 01:54:05 33° WNW 01:57:24 10° N
SL-08 ROCKET BODY 4.3 01:52:04 45° SSW 01:54:01 82° W 01:59:54 10° N
SJ 16-02 2.9 01:51:12 10° N 01:55:15 34° ENE 01:59:16 10° SE
COSMOS 2455 3.8 01:54:47 25° W 01:57:34 38° NW 02:03:10 10° NNE
Cosmos 1300 3.7 01:57:04 10° NNW 02:00:00 34° WNW 02:00:00 34° WNW
Cosmos 921 Rocket 3.3 02:00:21 46° W 02:00:49 48° WNW 02:05:00 10° N
Meteor 2-10 Rocket 4.1 01:57:24 10° N 02:02:38 55° ENE 02:06:01 20° SSE
Cosmos 1709 Rocket 4.1 02:01:48 31° S 02:04:48 70° E 02:10:54 10° NNE
Cosmos 1386 Rocket 4.4 02:02:40 40° SSW 02:04:54 70° W 02:11:02 10° N
Cosmos 1626 Rocket 3.7 02:06:42 51° WSW 02:07:16 55° W 02:11:33 10° N
Cosmos 1626 3.9 02:09:03 21° WNW 02:09:03 21° WNW 02:11:45 10° NNW
SL-19 R/B 4.4 02:07:57 32° S 02:10:56 73° WSW 02:17:23 10° NNW
STARLINK-1320 3.3 02:14:52 54° E 02:14:52 54° E 02:17:32 10° ENE
STARLINK-1322 3.3 02:15:11 55° E 02:15:11 55° E 02:17:52 10° ENE
STARLINK-1324 3.3 02:15:32 56° E 02:15:32 56° E 02:18:13 10° ENE
STARLINK-1294 3.2 02:15:47 57° E 02:15:47 57° E 02:18:32 10° ENE
STARLINK-1261 3.2 02:16:09 57° E 02:16:09 57° E 02:18:53 10° ENE
STARLINK-1325 3.2 02:16:30 58° E 02:16:30 58° E 02:19:14 10° ENE
STARLINK-1333 3.2 02:16:48 59° E 02:16:48 59° E 02:19:33 10° ENE
STARLINK-1334 3.1 02:17:07 60° E 02:17:07 60° E 02:19:53 10° ENE
STARLINK-1326 3.1 02:17:28 60° E 02:17:28 60° E 02:20:14 10° ENE
Cosmos 2219 3.2 02:11:35 10° NNW 02:17:17 86° ENE 02:22:14 14° SSE
STARLINK-1323 3.1 02:17:47 61° E 02:17:47 61° E 02:20:35 10° ENE
STARLINK-1338 3.2 02:17:39 61° SE 02:17:40 61° SE 02:21:07 10° ENE
STARLINK-1349 3.1 02:18:06 62° E 02:18:06 62° E 02:20:54 10° ENE
Cosmos 1980 Rocket 4.1 02:13:48 10° SSE 02:17:49 21° E 02:21:51 10° NE
STARLINK-1336 3.1 02:18:28 63° E 02:18:28 63° E 02:21:16 10° ENE
STARLINK-1331 3.0 02:18:45 64° E 02:18:45 64° E 02:21:35 10° ENE
STARLINK-1344 3.0 02:19:05 65° ESE 02:19:05 65° ESE 02:21:56 10° ENE
STARLINK-1343 3.0 02:19:25 65° ESE 02:19:25 65° ESE 02:22:16 10° ENE
STARLINK-1346 3.0 02:19:43 68° ESE 02:19:43 68° ESE 02:22:39 10° ENE
STARLINK-1328 3.0 02:20:05 67° ESE 02:20:05 67° ESE 02:22:58 10° ENE
STARLINK-1354 2.9 02:20:22 68° ESE 02:20:22 68° ESE 02:23:16 10° ENE
STARLINK-1347 2.9 02:20:44 69° ESE 02:20:44 69° ESE 02:23:39 10° ENE
STARLINK-1357 2.9 02:21:02 70° ESE 02:21:02 70° ESE 02:23:58 10° ENE
STARLINK-1335 2.9 02:21:22 71° ESE 02:21:22 71° ESE 02:24:18 10° ENE
STARLINK-1327 2.9 02:21:41 72° ESE 02:21:41 72° ESE 02:24:38 10° ENE
STARLINK-1371 3.1 02:21:31 65° SSE 02:21:42 67° SE 02:25:10 10° ENE
STARLINK-1340 2.9 02:22:01 73° ESE 02:22:01 73° ESE 02:24:59 10° NE
STARLINK-1356 2.8 02:22:21 74° ESE 02:22:21 74° ESE 02:25:19 10° NE
Cosmos 192 4.3 02:20:35 41° SSW 02:22:19 78° WNW 02:27:19 10° NNE
STARLINK-1345 2.8 02:22:41 75° ESE 02:22:41 75° ESE 02:25:41 10° NE
STARLINK-1355 2.8 02:22:59 75° ESE 02:22:59 75° ESE 02:26:00 10° NE
STARLINK-1321 2.8 02:23:18 76° ESE 02:23:18 76° ESE 02:26:19 10° NE
UNK 4.0 02:22:20 42° SW 02:23:21 50° W 02:27:50 10° NNW
MOZ.5/SAFIR/RUBIN 5/SL-8 4.4 02:22:55 35° WSW 02:23:27 37° W 02:27:45 10° NNW
STARLINK-1358 2.8 02:23:39 77° ESE 02:23:39 77° ESE 02:26:42 10° NE
STARLINK-1341 3.0 02:23:29 66° S 02:23:44 70° SE 02:27:13 10° ENE
STARLINK-1332 2.8 02:23:57 78° ESE 02:23:57 78° ESE 02:27:00 10° NE
STARLINK-1348 2.8 02:24:18 79° ESE 02:24:18 79° ESE 02:27:22 10° NE
STARLINK-1330 2.7 02:24:36 80° ESE 02:24:36 80° ESE 02:27:41 10° NE
STARLINK-1363 2.7 02:24:56 81° SE 02:24:56 81° SE 02:28:01 10° NE
STARLINK-1337 2.7 02:25:15 82° SE 02:25:15 82° SE 02:28:22 10° NE
STARLINK-1342 2.7 02:25:36 82° SE 02:25:36 82° SE 02:28:42 10° NE
STARLINK-1374 3.0 02:25:26 66° S 02:25:47 73° SE 02:29:17 10° ENE
STARLINK-1364 2.7 02:25:55 83° SE 02:25:55 83° SE 02:29:02 10° NE
STARLINK-1376 2.7 02:26:15 83° SSE 02:26:16 84° SE 02:29:23 10° NE
STARLINK-1360 2.7 02:26:30 84° SSE 02:26:32 84° SE 02:29:40 10° NE
STARLINK-1361 2.7 02:26:56 84° S 02:26:58 85° SE 02:30:06 10° NE
STARLINK-1367 2.7 02:27:10 83° S 02:27:14 85° SE 02:30:24 10° NE
STARLINK-1366 2.7 02:27:33 84° S 02:27:37 86° SE 02:30:45 10° NE
STARLINK-1339 3.0 02:27:27 64° SSW 02:27:52 77° SE 02:31:23 10° NE
Nadezhda 1 Rocket 4.4 02:22:09 10° NNW 02:27:57 45° W 02:30:28 30° SW
SL-4 R/B 3.6 02:24:45 14° W 02:28:28 37° NNW 02:32:51 10° NE
STARLINK-1377 3.0 02:29:28 62° SSW 02:29:58 80° SE 02:33:29 10° NE
AQUA 3.8 02:25:33 10° N 02:30:18 68° WNW 02:32:11 36° SW
Cosmos 1812 Rocket 3.8 02:25:59 10° NNW 02:30:21 53° W 02:31:37 39° SW
STARLINK-1353 3.0 02:31:17 61° SW 02:31:49 83° SE 02:35:18 10° NE
Cosmos 2297 Rocket 2.1 02:27:09 10° NNW 02:32:50 88° WSW 02:38:28 10° SSE
CZ-4B R/B 3.7 02:27:45 10° N 02:32:50 63° WNW 02:35:13 32° SW
STARLINK-1375 3.0 02:33:04 58° SW 02:33:41 86° SE 02:37:10 10° NE
ATLAS CENTAUR R/B 3.7 02:33:06 11° WNW 02:35:34 16° NW 02:38:15 10° N
STARLINK-1350 3.0 02:35:22 54° SW 02:36:04 89° NW 02:39:34 10° NE
FALCON 9 DEB 4.1 02:35:24 29° WNW 02:36:38 41° NNW 02:39:56 10° NE
STARLINK-1352 3.1 02:37:40 50° WSW 02:38:30 85° NW 02:42:02 10° NE
Cosmos 990 Rocket 4.0 02:33:27 10° NNW 02:38:45 83° ENE 02:43:59 10° SSE
CBERS-1 4.0 02:34:35 10° NNE 02:39:43 81° WNW 02:42:28 28° SSW
Cosmos 1602 Rocket 4.5 02:39:06 28° WSW 02:40:10 32° WNW 02:44:05 10° NNW
Cosmos 1825 Rocket 3.4 02:38:21 33° S 02:40:14 85° W 02:44:36 10° N
STARLINK-1368 3.1 02:39:45 46° WSW 02:40:40 82° NW 02:44:12 10° NE
STARLINK-1369 3.1 02:41:37 44° WSW 02:42:35 79° NW 02:46:06 10° NE
Cosmos 1455 2.1 02:39:22 10° NNW 02:43:04 61° W 02:44:16 38° SSW
SL-16 R/B 3.1 02:41:06 27° SW 02:43:44 39° W 02:49:27 10° NNW
STARLINK-1372 3.2 02:43:57 41° WSW 02:45:04 75° NW 02:48:36 10° NE
ATLAS CENTAUR R/B 2.2 02:42:53 10° NW 02:46:07 86° SW 02:53:57 10° SE
USA 234 4.4 02:40:46 10° ENE 02:46:28 31° SE 02:51:07 14° S
STARLINK-1378 3.3 02:46:05 38° WSW 02:47:17 72° NW 02:50:49 10° NE
STARLINK-1201 4.4 02:43:25 10° NW 02:47:30 54° NNE 02:51:33 10° ESE
STARLINK-1329 3.3 02:46:35 37° WSW 02:47:48 71° NW 02:51:21 10° NE
Cosmos 841 Rocket 4.1 02:44:27 19° S 02:48:07 53° ESE 02:53:13 10° NNE
STARLINK-1365 3.3 02:47:17 36° WSW 02:48:33 67° NNW 02:52:04 10° NE
STARLINK-1379 3.3 02:48:13 36° WSW 02:49:30 69° NW 02:53:02 10° NE
STARLINK-1362 3.3 02:48:47 35° WSW 02:50:06 68° NW 02:53:39 10° NE
GP-B 3.3 02:47:10 10° N 02:51:31 54° W 02:53:37 28° SSW
STARLINK-1373 3.4 02:50:59 33° WSW 02:52:24 65° NW 02:55:57 10° NE
STARLINK-1206 4.3 02:48:23 10° NW 02:52:29 58° NNE 02:56:34 10° ESE
IRS-1D 3.7 02:47:20 10° N 02:52:37 64° WNW 02:55:45 24° SSW
STARLINK-1390 3.4 02:52:59 31° WSW 02:54:28 63° NNW 02:57:59 10° NE
NOSS 7 (E) 4.4 02:53:04 33° SSW 02:54:34 76° SE 02:57:44 10° NE
Cosmos-2242 2.9 02:50:26 10° NNW 02:54:40 68° W 02:57:21 22° S
Cosmos 1400 Rocket 3.7 02:51:45 10° N 02:55:46 50° ENE 02:59:47 10° SSE
STARLINK-1205 4.1 02:53:21 10° NW 02:57:28 63° NNE 03:01:35 10° ESE
ATLAS 3B R/B 3.7 02:52:14 10° WNW 02:57:36 25° WSW 02:59:51 21° SW
Cosmos 2184 Rocket 4.2 02:51:53 12° S 02:57:39 69° E 03:03:47 10° NNE
SL-08 R/B 3.2 02:54:27 10° SSE 02:59:10 89° ENE 03:03:51 10° NNW
Alouette 2 Rocket 4.3 02:56:22 10° NNW 03:02:14 48° W 03:04:50 22° SSW
STARLINK-1218 4.0 02:58:18 10° NW 03:02:27 68° NE 03:06:34 10° ESE
Cosmos 1703 3.7 03:02:10 27° SW 03:03:54 45° WNW 03:07:43 10° N
Cosmos 1763 Rocket 3.7 03:03:46 23° SW 03:06:53 56° WNW 03:11:54 10° NNE
STARLINK-1254 3.8 03:03:17 10° NW 03:07:27 74° NE 03:11:34 10° ESE
IRS-P3 4.2 03:02:56 10° N 03:08:14 65° WNW 03:12:05 19° SSW
Cosmos 2227 Rocket 2.3 03:02:50 10° NNW 03:08:21 53° WSW 03:13:50 10° S
CZ-2D R/B 3.5 03:04:29 10° NNW 03:08:38 24° WNW 03:11:34 15° WSW
Cosmos 1697 Rocket 2.7 03:04:56 20° SSW 03:08:55 81° WNW 03:14:38 10° NNE
Cosmos 2181 Rocket 4.2 03:03:08 10° NNW 03:09:24 57° W 03:15:15 12° SSW
STARLINK-1228 3.9 03:08:10 10° WNW 03:11:05 28° SW 03:13:59 10° SSE
ADEOS II 2.3 03:06:11 10° N 03:11:20 56° WNW 03:15:03 19° SW
STARLINK-1231 3.7 03:08:17 10° NW 03:12:26 80° NE 03:16:35 10° ESE
STARLINK-1212 3.3 03:10:00 10° WNW 03:12:54 37° SW 03:15:47 10° SSE
STARLINK-1105 3.3 03:10:28 10° WNW 03:13:22 36° SW 03:16:13 10° SSE
STARLINK-1247 3.4 03:11:23 10° WNW 03:14:17 36° SW 03:17:10 10° SSE
STARLINK-1227 3.4 03:11:51 10° WNW 03:14:43 35° SW 03:17:34 10° SSE
STARLINK-1226 3.4 03:12:42 10° WNW 03:15:35 34° SW 03:18:27 10° SSE
STARLINK-1215 3.4 03:13:40 10° WNW 03:16:32 34° SW 03:19:23 10° SSE
STARLINK-1232 3.6 03:13:16 10° NW 03:17:26 86° NE 03:21:34 10° SE
CZ-2C R/B 3.7 03:14:29 10° NNE 03:18:02 43° E 03:21:36 10° S
Resurs 1-4 Rocket 3.7 03:14:17 10° NNW 03:18:03 20° WNW 03:21:16 12° WSW
STARLINK-1217 3.5 03:15:27 10° WNW 03:18:18 32° SW 03:21:07 10° SSE
STARLINK-1229 3.5 03:16:22 10° WNW 03:19:13 32° SW 03:22:02 10° SSE
H-2A R/B 2.2 03:15:45 10° SSE 03:20:01 77° ENE 03:24:26 10° N
STARLINK-1270 3.6 03:17:15 10° WNW 03:20:04 31° SW 03:22:52 10° SSE
STARLINK-1189 3.6 03:19:07 10° WNW 03:21:54 30° SW 03:24:40 10° SSE
BREEZE-M R/B 3.9 03:18:50 10° W 03:22:15 28° NNW 03:24:38 10° NE
STARLINK-1208 3.5 03:18:13 10° NW 03:22:23 87° SSW 03:26:31 10° SE
STARLINK-1188 3.7 03:20:01 10° WNW 03:22:47 29° SW 03:25:33 10° SSE
ARIANE 5 R/B 2.5 03:17:52 10° N 03:22:55 70° WNW 03:27:14 14° SSW
STARLINK-1235 4.2 03:20:53 10° W 03:23:58 21° SSW 03:25:51 10° S
STARLINK-1187 3.9 03:21:12 10° WNW 03:23:50 25° SW 03:26:26 10° SSE
STARLINK-1191 3.7 03:22:31 10° WNW 03:25:13 27° SW 03:27:55 10° SSE
STARLINK-1221 3.8 03:23:23 10° WNW 03:26:05 27° SW 03:28:46 10° SSE
STARLINK-1222 3.8 03:24:18 10° WNW 03:26:59 26° SW 03:29:38 10° SSE
STARLINK-1271 3.5 03:23:13 10° NW 03:27:23 80° SW 03:31:30 10° SE
BREEZE-M DEB (TANK) 0.9 03:25:37 10° WNW 03:27:47 86° SW 03:30:13 10° ESE
STARLINK-1214 3.8 03:25:14 10° WNW 03:27:53 26° SW 03:30:31 10° SSE
Spot 4 Rocket 4.0 03:23:39 10° NNE 03:28:49 85° WNW 03:33:57 10° SSW
Cosmos 2154 Rocket 4.2 03:23:20 10° S 03:29:37 78° E 03:35:54 10° N
Lacrosse 4 Rocket 1.6 03:25:30 10° NNW 03:29:51 77° ENE 03:34:03 10° SSE
Cosmos 2058 4.3 03:27:09 10° SSE 03:31:02 39° E 03:34:57 10° NNE
Meteor 1-27 4.2 03:25:42 10° NNW 03:31:17 83° W 03:36:50 10° S
Cosmos 1898 Rocket 4.2 03:26:51 10° NW 03:31:39 35° W 03:36:24 10° SSW
STARLINK-1154 3.5 03:28:12 10° WNW 03:32:20 73° SW 03:36:28 10° SE
USA 129 2.2 03:30:44 10° NNE 03:32:29 35° E 03:33:05 21° SSE
SJ 16-02 2.6 03:30:10 10° NW 03:33:37 22° W 03:36:11 14° SW
Cosmos 1953 Rocket 4.5 03:31:48 15° SW 03:34:53 33° WNW 03:38:56 10° N
IDEFIX/ARIANE 42P 2.7 03:31:32 10° NNE 03:36:51 81° ESE 03:42:06 10° S
STARLINK-1197 3.5 03:33:11 10° WNW 03:37:18 67° SW 03:41:25 10° SE
STARLINK 1040 4.0 03:35:58 13° S 03:37:43 26° SE 03:39:58 10° ENE
Cosmos 1570 Rocket 4.5 03:33:27 14° SW 03:37:51 49° WNW 03:43:01 10° N
CZ-4C R/B 2.5 03:35:54 14° WSW 03:40:11 53° NW 03:45:59 10° NNE
Cosmos 2208 Rocket 4.3 03:36:15 13° SW 03:40:48 55° WNW 03:46:01 10° NNE
Cosmos 1937 Rocket 4.0 03:37:00 10° NW 03:41:51 39° WSW 03:46:42 10° S
Cosmos 2285 Rocket 4.2 03:35:52 10° NNW 03:41:58 49° WSW 03:48:01 10° S
STARLINK-1198 3.6 03:38:09 10° WNW 03:42:15 61° SW 03:46:20 10° SE
Meteor 2-17 Rocket 4.5 03:36:24 10° SSW 03:42:33 75° W 03:48:43 10° N
Cosmos 2369 4.2 03:37:51 13° SW 03:42:41 47° WNW 03:48:08 10° NNE
Cosmos 1842 Rocket 3.6 03:40:09 10° N 03:44:39 77° W 03:49:06 10° S
Cosmos 2360 4.4 03:40:26 12° SW 03:45:38 59° WNW 03:51:17 10° NNE
STARLINK-1199 3.7 03:43:11 10° WNW 03:47:15 55° SW 03:51:18 10° SE
Iridium 2 3.9 03:43:43 10° NNW 03:47:21 49° W 03:50:59 10° SSW
Uosat 12 SS-18 rocket 4.1 03:44:46 10° NNW 03:49:06 86° ENE 03:53:43 10° SE
IRIDIUM 104 4.3 03:45:53 10° S 03:51:05 73° W 03:56:19 10° N
STARLINK-1210 3.8 03:48:11 10° WNW 03:52:12 50° SW 03:56:12 10° SSE
CZ-4B R/B 2.9 03:50:49 10° SE 03:53:40 37° ENE 03:56:31 10° N
STARLINK-43 3.5 03:53:31 10° SW 03:57:07 63° SE 04:00:46 10° ENE
STARLINK-1219 3.9 03:53:11 10° WNW 03:57:09 46° SW 04:01:07 10° SSE
ERS-2 3.3 03:54:25 10° SSW 03:57:27 25° W 04:00:33 10° NW
Timation 1 Rocket 4.5 03:53:40 10° NNW 03:59:40 84° ENE 04:05:38 10° SSE
Cosmos 1825 4.3 03:56:51 10° SSE 04:00:06 28° E 04:03:20 10° NNE
IRIDIUM 114 4.4 03:55:07 10° SSW 04:00:16 60° W 04:05:26 10° N
CZ-2C R/B 3.5 03:56:03 10° NNE 04:01:01 48° E 04:06:00 10° S
Cosmos 1980 Rocket 2.4 03:55:49 10° SW 04:01:18 57° WNW 04:06:53 10° NNE
Cosmos 1125 Rocket 4.1 03:56:19 10° NNW 04:01:30 64° ENE 04:06:38 10° SSE
STARLINK-1211 4.0 03:58:11 10° WNW 04:02:06 41° SW 04:06:00 10° SSE
Nadezhda 3 Rocket 4.1 04:00:37 10° NNW 04:06:45 60° W 04:12:57 10° S
STARLINK-1245 4.1 04:03:13 10° WNW 04:07:04 38° SW 04:10:54 10° SSE
SL-4 R/B 4.3 04:05:06 10° NW 04:09:07 26° N 04:12:57 10° ENE
STARLINK-1138 4.4 04:05:21 10° NW 04:09:27 56° NNE 04:13:31 10° ESE
